Location: *
(50.6089°N, 2.2719°E)
Time: 04:21:25
(UTC+00:00)

STARLINK-72 - Pass Details

Date: 18 October 2019
Orbit: 548 x 551 km, 53.0° (Epoch: 16 November)

Event Time Altitude Azimuth Distance (km) Brightness Sun altitude
Rises 17:35:58 0° 248° (WSW) 2,711 9.0 -7.5°
Reaches altitude 10° 17:38:12 10° 248° (WSW) 1,820 7.7 -7.8°
Maximum altitude 17:42:20 88° 169° (S) 555 3.6 -8.5°
Enters shadow 17:46:16 11° 71° (ENE) 1,738 5.5 -9.1°
